• In Hungary
  • List of Countries
  • For 7 days
  • Water Temperature
  • Satellite Maps
  • Weather Map
  • News
  • Weather Widgets
  • user-avatar
    Login

    Hourly Weather Anyb

    Today, 23 May, Wednesday

    Time Temperature Precipitation Wind Pressure Humidity
    00:00 +10°C° 0 mm 1 mps 759 mmHg 46%
    01:00 +8°C° 0 mm 2 mps 759 mmHg 47%
    02:00 +9°C° 0 mm 2 mps 759 mmHg 47%
    03:00 +9°C° 0 mm 2 mps 759 mmHg 47%
    04:00 +9°C° 0 mm 3 mps 758 mmHg 47%
    05:00 +10°C° 0 mm 3 mps 757 mmHg 45%
    06:00 +11°C° 0 mm 3 mps 757 mmHg 43%
    07:00 +12°C° 0 mm 4 mps 756 mmHg 41%
    08:00 +14°C° 0 mm 4 mps 755 mmHg 41%
    09:00 +17°C° 0 mm 4 mps 754 mmHg 41%
    10:00 +21°C° 0 mm 5 mps 754 mmHg 41%
    11:00 +21°C° 0 mm 4 mps 753 mmHg 44%
    12:00 +21°C° 0 mm 4 mps 752 mmHg 47%
    13:00 +22°C° 0 mm 4 mps 751 mmHg 50%
    14:00 +22°C° 0 mm 4 mps 751 mmHg 50%
    15:00 +22°C° 0 mm 4 mps 750 mmHg 49%
    16:00 +22°C° 0 mm 3 mps 749 mmHg 48%
    17:00 +22°C° 0.2 mm 3 mps 749 mmHg 51%
    18:00 +21°C° 0.2 mm 3 mps 748 mmHg 54%
    19:00 +21°C° 0.2 mm 4 mps 747 mmHg 56%
    20:00 +20°C° 0.1 mm 4 mps 747 mmHg 61%
    21:00 +18°C° 0.1 mm 4 mps 747 mmHg 66%
    22:00 +17°C° 0.1 mm 4 mps 746 mmHg 71%
    23:00 +16°C° 0.3 mm 3 mps 747 mmHg 77%

    Tomorrow, 24 May, Thursday

    Time Temperature Precipitation Wind Pressure Humidity
    00:00 +14°C° 0.3 mm 3 mps 747 mmHg 84%
    01:00 +13°C° 0.3 mm 3 mps 747 mmHg 90%
    02:00 +12°C° 0.1 mm 3 mps 748 mmHg 88%
    03:00 +11°C° 0.1 mm 4 mps 748 mmHg 87%
    04:00 +10°C° 0.1 mm 4 mps 749 mmHg 85%
    05:00 +8°C° 0 mm 4 mps 750 mmHg 81%
    06:00 +7°C° 0 mm 4 mps 750 mmHg 78%
    07:00 +6°C° 0 mm 4 mps 751 mmHg 74%
    08:00 +7°C° 0 mm 4 mps 751 mmHg 64%
    09:00 +8°C° 0 mm 4 mps 752 mmHg 54%
    10:00 +10°C° 0 mm 4 mps 752 mmHg 44%
    11:00 +11°C° 0 mm 4 mps 753 mmHg 41%
    12:00 +12°C° 0 mm 4 mps 753 mmHg 37%
    13:00 +13°C° 0 mm 4 mps 753 mmHg 34%
    14:00 +13°C° 0 mm 4 mps 753 mmHg 34%
    15:00 +12°C° 0 mm 4 mps 753 mmHg 35%
    16:00 +12°C° 0 mm 4 mps 753 mmHg 36%
    17:00 +12°C° 0 mm 4 mps 753 mmHg 38%
    18:00 +11°C° 0 mm 4 mps 753 mmHg 40%
    19:00 +10°C° 0 mm 4 mps 753 mmHg 42%
    20:00 +9°C° 0 mm 3 mps 753 mmHg 46%
    21:00 +8°C° 0 mm 3 mps 754 mmHg 50%
    22:00 +6°C° 0 mm 2 mps 754 mmHg 55%
    23:00 +6°C° 0 mm 2 mps 754 mmHg 59%

    Day after tomorrow, 25 May, Friday

    Time Temperature Precipitation Wind Pressure Humidity
    00:00 +5°C° 0 mm 2 mps 754 mmHg 64%
    01:00 +5°C° 0 mm 2 mps 754 mmHg 68%
    02:00 +4°C° 0 mm 2 mps 755 mmHg 70%
    03:00 +3°C° 0 mm 2 mps 755 mmHg 72%
    04:00 +2°C° 0 mm 2 mps 755 mmHg 73%
    05:00 +2°C° 0 mm 3 mps 756 mmHg 67%
    06:00 +3°C° 0 mm 3 mps 756 mmHg 61%
    07:00 +3°C° 0 mm 4 mps 756 mmHg 55%
    08:00 +4°C° 0 mm 4 mps 756 mmHg 52%
    09:00 +4°C° 0 mm 4 mps 757 mmHg 49%
    10:00 +4°C° 0 mm 4 mps 757 mmHg 46%
    11:00 +5°C° 0 mm 4 mps 757 mmHg 42%
    12:00 +6°C° 0 mm 4 mps 757 mmHg 39%
    13:00 +7°C° 0 mm 4 mps 758 mmHg 36%
    14:00 +7°C° 0 mm 4 mps 758 mmHg 34%
    15:00 +8°C° 0 mm 4 mps 758 mmHg 33%
    16:00 +10°C° 0 mm 4 mps 758 mmHg 31%
    17:00 +8°C° 0 mm 4 mps 758 mmHg 32%
    18:00 +9°C° 0 mm 3 mps 758 mmHg 34%
    19:00 +9°C° 0 mm 3 mps 759 mmHg 35%
    20:00 +7°C° 0 mm 2 mps 759 mmHg 41%
    21:00 +6°C° 0 mm 1 mps 759 mmHg 48%
    22:00 +4°C° 0 mm 0 mps 759 mmHg 55%
    23:00 +4°C° 0 mm 1 mps 759 mmHg 56%

    26 May, Saturday

    Time Temperature Precipitation Wind Pressure Humidity
    00:00 +4°C° 0 mm 1 mps 759 mmHg 58%
    01:00 +4°C° 0 mm 1 mps 760 mmHg 60%
    02:00 +3°C° 0 mm 2 mps 759 mmHg 62%
    03:00 +3°C° 0 mm 2 mps 759 mmHg 64%
    04:00 +2°C° 0 mm 2 mps 759 mmHg 66%
    05:00 +4°C° 0 mm 2 mps 759 mmHg 62%
    06:00 +6°C° 0 mm 2 mps 759 mmHg 58%
    07:00 +8°C° 0 mm 2 mps 759 mmHg 53%
    08:00 +10°C° 0 mm 3 mps 759 mmHg 48%
    09:00 +12°C° 0 mm 3 mps 758 mmHg 42%
    10:00 +14°C° 0 mm 4 mps 758 mmHg 37%
    11:00 +15°C° 0 mm 4 mps 757 mmHg 35%
    12:00 +18°C° 0 mm 4 mps 757 mmHg 33%
    13:00 +19°C° 0 mm 4 mps 756 mmHg 32%
    14:00 +19°C° 0 mm 4 mps 756 mmHg 32%
    15:00 +20°C° 0 mm 5 mps 755 mmHg 31%
    16:00 +21°C° 0 mm 5 mps 755 mmHg 31%
    17:00 +20°C° 0 mm 4 mps 754 mmHg 35%
    18:00 +19°C° 0 mm 4 mps 754 mmHg 38%
    19:00 +19°C° 0 mm 3 mps 754 mmHg 42%
    20:00 +17°C° 0 mm 3 mps 754 mmHg 48%
    21:00 +16°C° 0 mm 3 mps 754 mmHg 54%
    22:00 +14°C° 0 mm 2 mps 755 mmHg 60%
    23:00 +12°C° 0 mm 2 mps 755 mmHg 61%

    27 May, Sunday

    Time Temperature Precipitation Wind Pressure Humidity
    00:00 +10°C° 0 mm 2 mps 755 mmHg 61%
    01:00 +8°C° 0 mm 2 mps 756 mmHg 61%
    02:00 +7°C° 0 mm 2 mps 756 mmHg 64%
    03:00 +7°C° 0 mm 1 mps 756 mmHg 66%
    04:00 +6°C° 0 mm 1 mps 756 mmHg 68%
    05:00 +7°C° 0 mm 1 mps 756 mmHg 61%
    06:00 +9°C° 0 mm 1 mps 756 mmHg 54%
    07:00 +11°C° 0 mm 1 mps 756 mmHg 47%
    08:00 +13°C° 0 mm 1 mps 756 mmHg 41%
    09:00 +15°C° 0 mm 1 mps 755 mmHg 35%
    10:00 +16°C° 0 mm 1 mps 754 mmHg 29%
    11:00 +18°C° 0 mm 1 mps 753 mmHg 29%
    12:00 +17°C° 0 mm 2 mps 753 mmHg 29%
    13:00 +17°C° 0 mm 2 mps 752 mmHg 28%
    14:00 +16°C° 0.1 mm 2 mps 751 mmHg 36%
    15:00 +15°C° 0.1 mm 2 mps 750 mmHg 44%
    16:00 +13°C° 0.1 mm 3 mps 749 mmHg 51%
    17:00 +13°C° 0.1 mm 2 mps 749 mmHg 54%
    18:00 +13°C° 0.1 mm 2 mps 748 mmHg 56%
    19:00 +13°C° 0.1 mm 2 mps 748 mmHg 59%
    20:00 +12°C° 0 mm 2 mps 748 mmHg 63%
    21:00 +10°C° 0 mm 2 mps 748 mmHg 67%
    22:00 +8°C° 0 mm 2 mps 748 mmHg 70%
    23:00 +8°C° 0 mm 2 mps 748 mmHg 74%

    28 May, Monday

    Time Temperature Precipitation Wind Pressure Humidity
    00:00 +7°C° 0 mm 2 mps 748 mmHg 78%
    01:00 +6°C° 0 mm 2 mps 748 mmHg 82%
    02:00 +5°C° 0 mm 2 mps 748 mmHg 80%
    03:00 +4°C° 0 mm 3 mps 748 mmHg 79%
    04:00 +3°C° 0 mm 3 mps 748 mmHg 78%
    05:00 +4°C° 0.1 mm 3 mps 748 mmHg 74%
    06:00 +5°C° 0.1 mm 4 mps 749 mmHg 69%
    07:00 +5°C° 0.1 mm 4 mps 749 mmHg 65%
    08:00 +6°C° 0.3 mm 4 mps 749 mmHg 62%
    09:00 +6°C° 0.3 mm 5 mps 748 mmHg 58%
    10:00 +6°C° 0.3 mm 5 mps 748 mmHg 55%
    11:00 +7°C° 0.1 mm 5 mps 749 mmHg 50%
    12:00 +7°C° 0.1 mm 5 mps 749 mmHg 45%
    13:00 +7°C° 0.1 mm 6 mps 749 mmHg 40%
    14:00 +7°C° 0 mm 5 mps 749 mmHg 40%
    15:00 +7°C° 0 mm 5 mps 749 mmHg 39%
    16:00 +7°C° 0 mm 5 mps 749 mmHg 38%
    17:00 +6°C° 0 mm 5 mps 749 mmHg 40%
    18:00 +6°C° 0 mm 5 mps 749 mmHg 42%
    19:00 +6°C° 0 mm 5 mps 749 mmHg 44%
    20:00 +5°C° 0.1 mm 4 mps 749 mmHg 49%
    21:00 +4°C° 0.1 mm 4 mps 749 mmHg 54%
    22:00 +3°C° 0.1 mm 3 mps 749 mmHg 59%
    23:00 +2°C° 0 mm 3 mps 749 mmHg 62%
    Show more